Wind_Speed
77 75 76 74 76 78 79 77 73 64 64 64 65 60 55 53 49 47 46 42 34 31 27 24 23 22 17 13 14 15 17 20 22 26 28 30 31 34 38 40 44 48 51 51
66 71 69 65 67 70 68 64 62 52 49 58 54 50 45 42 36 34 32 31 25 22 18 16 11 7 10 12 15 20 24 27 30 34 37 40 43 46 49 51 54 55 56 56
60 68 62 57 66 59 57 57 49 49 49 50 45 38 31 31 28 26 23 19 13 10 3 3 6 10 14 18 22 26 30 35 39 43 46 48 52 54 55 56 56 57 56 55
56 57 53 57 58 51 48 48 42 43 43 39 31 25 24 19 15 13 9 6 5 2 2 6 11 15 20 24 28 32 37 41 45 48 48 48 50 53 53 53 54 56 58 58
50 50 47 53 46 42 39 40 39 37 33 24 23 15 12 9 6 7 5 3 0 4 7 13 18 23 26 28 31 36 41 43 46 47 47 44 43 48 49 47 48 49 51 53
46 42 43 48 38 37 31 36 31 25 22 17 13 10 11 11 4 3 3 3 5 10 14 19 22 27 30 35 38 42 43 45 46 46 47 46 42 41 43 43 44 45 46 48
41 35 38 38 34 33 25 30 22 18 19 13 12 13 13 9 8 8 7 9 13 16 18 20 26 33 36 40 43 44 44 45 46 47 46 45 44 41 38 38 38 38 39 40
35 32 34 33 30 27 24 22 16 17 15 15 17 15 13 12 12 14 14 16 18 16 20 25 32 36 40 43 44 45 46 45 45 45 44 46 43 42 40 36 34 35 34 35
32 31 33 27 24 21 22 19 16 16 16 19 18 16 13 14 17 18 18 20 22 21 25 30 35 40 41 43 44 46 46 46 48 47 47 47 47 45 41 40 37 35 33 32
28 29 29 22 21 20 22 18 18 20 20 21 18 18 18 16 16 18 20 24 26 27 30 35 39 41 39 42 46 48 49 50 51 52 50 49 49 49 46 43 40 37 37 38
29 28 23 24 18 24 21 21 22 24 23 22 19 19 21 18 18 22 22 26 29 31 34 38 40 38 40 44 46 48 50 51 52 53 51 52 52 50 49 47 45 42 40 39
26 23 21 22 20 24 21 22 23 24 26 23 20 20 21 21 21 22 24 28 30 34 37 38 36 38 41 43 47 49 53 53 53 53 54 53 53 53 52 49 48 46 46 46
25 19 20 20 22 22 19 24 26 28 30 26 28 24 24 26 24 25 28 31 34 35 38 34 36 37 43 46 49 50 56 56 54 54 54 55 55 53 53 51 49 48 50 51
21 18 21 21 21 21 20 25 24 25 26 28 28 29 28 24 28 30 32 35 35 37 36 35 38 43 48 49 51 55 59 61 59 57 55 54 53 55 56 54 53 53 52 52
19 21 21 21 17 16 22 27 25 24 27 28 28 26 25 28 33 33 35 35 37 37 35 39 42 49 51 51 56 60 60 64 64 60 57 56 55 53 53 54 54 55 57 58
15 14 11 10 13 17 25 33 30 28 28 26 27 28 32 35 33 34 34 37 37 38 41 42 47 53 53 55 60 65 65 66 65 62 58 57 57 56 56 56 56 57 57 59
11 11 11 15 19 20 18 26 33 32 30 30 32 32 34 31 32 33 37 38 39 41 43 48 51 54 56 60 66 69 70 70 67 62 60 59 57 57 57 57 59 60 61 62
10 11 11 17 23 20 21 22 24 26 30 33 35 33 29 31 34 36 37 38 41 42 48 51 55 58 60 65 68 73 75 73 67 62 61 61 60 59 60 62 63 64 63 62
13 10 12 18 21 20 21 22 25 29 28 27 27 28 30 33 35 36 39 42 43 48 51 56 59 61 65 68 72 74 76 73 70 66 64 62 61 62 64 65 66 65 62 60
18 17 18 19 21 22 24 26 27 27 25 26 28 31 34 35 37 40 41 43 50 52 56 58 62 66 70 72 76 76 75 72 69 68 66 66 66 66 68 68 65 64 62 60
24 25 25 28 28 30 31 29 28 27 28 30 32 33 34 37 40 42 46 50 55 58 60 63 68 71 72 76 79 79 77 73 69 68 67 67 68 68 68 66 64 63 61 59
22 22 23 24 26 28 29 28 29 31 33 33 33 34 37 41 44 47 50 55 61 64 64 69 73 75 77 80 81 80 77 74 72 70 70 70 69 68 66 64 62 61 60 59
23 24 24 25 27 28 29 31 33 35 34 35 37 40 44 47 50 54 57 62 66 67 70 74 77 79 81 83 82 80 78 74 73 73 72 71 69 67 64 63 61 60 59 58
27 28 29 31 32 33 34 34 35 36 37 40 43 47 49 53 56 60 64 67 69 72 75 77 79 81 83 84 83 80 77 76 74 73 72 70 67 65 64 62 60 59 59 58
31 32 33 34 34 34 35 35 37 41 44 47 51 54 56 59 62 65 68 71 74 77 79 80 82 83 85 84 82 78 76 75 73 72 69 66 65 63 62 62 61 60 60 60
35 36 37 37 38 38 41 42 44 46 49 53 56 59 62 64 65 68 71 75 77 79 81 82 84 86 85 83 80 77 75 73 71 68 66 65 64 63 62 62 62 62 61 61
40 41 42 42 43 46 48 51 52 53 55 57 59 62 65 67 71 74 76 78 79 81 84 86 86 86 82 79 76 74 72 70 67 65 64 62 62 62 62 62 62 62 61 60
Wind_Direction
280 278 276 277 278 277 279 280 283 281 286 283 282 289 290 288 284 285 286 287 282 281 283 289 288 290 293 302 306 302 302 301 298 293 289 284 280 275 275 274 272 274 276 279
278 277 275 279 277 275 282 283 284 289 282 280 287 289 286 287 286 281 278 277 280 285 288 284 283 288 300 307 307 306 304 302 300 296 292 289 286 282 279 277 276 277 277 277
274 274 276 275 270 280 279 282 285 284 284 284 286 288 285 278 278 275 278 277 275 270 254 275 320 314 312 307 303 303 303 301 300 298 296 294 291 287 284 281 279 277 275 274
270 272 274 272 276 278 280 281 285 284 282 285 286 279 275 272 275 275 260 207 142 129 318 321 306 298 300 304 305 304 303 303 303 303 302 301 296 291 288 285 281 278 275 273
269 272 274 272 275 279 278 280 276 276 278 279 270 258 252 238 179 153 113 109 227 323 307 298 304 306 306 304 303 307 310 309 308 309 311 309 303 298 296 292 289 284 278 274
269 271 271 271 278 274 279 270 271 271 267 253 244 217 187 153 168 196 230 280 296 286 298 303 305 308 306 308 310 313 313 315 314 314 314 315 312 306 300 296 294 289 282 276
272 273 273 273 273 270 262 261 264 257 251 252 215 186 176 187 225 255 274 282 288 297 301 308 309 308 311 313 314 315 317 318 318 317 315 316 317 314 307 301 300 299 292 284
275 273 270 267 272 267 257 253 248 235 237 215 192 184 196 208 238 262 274 286 296 304 309 310 307 310 315 314 316 317 319 320 321 322 320 320 319 318 316 308 305 304 303 295
269 267 264 268 259 258 253 249 231 225 218 191 194 205 216 230 268 275 288 293 298 301 304 307 307 314 315 316 318 318 320 321 322 323 323 322 322 320 318 316 312 307 303 302
265 263 264 257 247 241 244 242 220 209 196 200 209 229 240 250 263 276 286 293 297 302 305 310 314 315 317 317 318 320 321 320 319 320 322 321 323 321 318 315 313 309 307 306
257 254 249 255 244 245 237 223 217 200 199 208 209 226 237 246 263 276 285 290 296 303 308 312 314 315 317 320 323 324 323 320 318 317 318 318 317 319 318 315 314 311 307 303
257 251 243 251 245 244 235 218 215 201 205 211 220 238 252 260 271 278 284 289 298 302 307 311 312 315 318 319 320 322 325 324 321 316 314 313 314 315 316 313 311 310 308 304
247 250 249 248 248 242 232 221 215 212 219 227 240 248 258 269 273 276 282 290 295 302 306 306 312 316 319 319 320 321 326 324 320 316 314 312 311 312 312 310 308 308 307 306
244 240 241 241 240 233 222 220 222 226 234 236 245 251 259 266 273 279 285 290 298 302 301 307 314 315 319 319 321 320 321 325 321 315 313 311 310 311 311 310 309 309 307 305
231 234 234 235 239 228 213 217 219 227 240 247 257 255 260 267 278 280 287 297 300 301 300 306 308 314 317 315 318 320 319 321 320 316 314 313 312 310 309 308 309 309 308 307
223 220 230 227 217 214 210 214 224 232 243 253 256 258 264 273 277 281 292 296 298 301 303 304 306 313 314 317 319 319 318 319 318 315 314 314 313 311 310 309 309 308 307 306
221 249 259 238 212 203 215 230 236 247 254 258 260 266 275 274 279 287 294 296 298 301 305 306 308 312 313 318 318 319 318 318 317 314 313 313 313 312 311 310 309 308 307 305
249 252 242 218 209 216 229 237 246 254 259 264 266 270 270 278 285 291 293 294 299 303 305 307 311 313 315 317 318 319 318 317 317 314 312 312 312 312 312 311 309 308 307 305
241 243 238 225 221 230 240 246 255 263 269 268 268 271 274 282 287 289 291 296 300 304 308 311 313 315 316 318 319 318 318 317 317 315 312 312 312 311 311 310 309 309 308 306
235 239 236 232 237 247 257 258 264 270 268 268 271 274 281 284 285 287 293 297 303 307 310 313 316 316 316 316 317 317 317 316 315 314 314 313 312 312 311 310 310 309 308 307
239 245 247 254 252 257 260 261 267 264 267 271 276 280 281 283 287 290 296 304 305 307 309 312 315 316 315 316 317 317 316 315 314 313 312 311 311 311 310 310 310 309 308 307
247 249 251 252 253 254 256 257 261 265 270 275 276 278 280 287 290 294 297 302 304 306 308 310 313 314 314 316 316 316 315 314 314 313 312 311 311 311 310 311 311 310 309 308
244 248 252 255 256 257 258 261 265 269 271 272 275 279 284 287 291 295 298 301 303 306 307 308 311 312 314 315 315 315 314 313 312 312 312 311 312 311 312 312 311 310 309 308
247 252 254 256 257 259 262 266 267 267 271 276 279 283 285 287 291 295 299 300 302 305 307 308 310 311 313 313 313 313 312 312 312 312 312 312 312 312 312 311 311 310 309 308
252 257 260 262 262 262 263 266 270 270 272 274 278 281 285 290 294 296 297 300 303 305 307 308 309 311 311 311 311 311 311 311 312 312 312 312 312 312 312 311 311 311 310 310
255 261 265 265 264 266 268 271 274 276 276 278 282 285 288 290 293 297 299 302 304 305 307 308 309 309 310 310 310 310 311 311 312 312 312 312 312 312 312 312 312 312 311 311
257 261 264 267 269 271 275 278 279 281 282 284 285 287 290 293 296 299 302 303 305 306 307 308 308 309 310 309 310 310 311 311 311 312 311 311 312 312 313 312 312 312 312 311
Height
10365 10366 10359 10361 10359 10350 10350 10348 10349 10354 10347 10336 10329 10333 10335 10329 10326 10323 10317 10315 10316 10315 10315 10314 10313 10313 10312 10312 10311 10311 10310 10309 10307 10306 10305 10303 10301 10299 10297 10296 10295 10293 10292 10291
10346 10338 10340 10346 10335 10330 10333 10332 10329 10335 10333 10319 10322 10321 10319 10315 10315 10312 10309 10307 10308 10307 10307 10308 10308 10308 10308 10309 10308 10307 10305 10303 10302 10300 10298 10295 10293 10289 10286 10283 10281 10278 10276 10275
10331 10319 10325 10329 10309 10322 10321 10316 10318 10316 10314 10310 10311 10311 10309 10305 10306 10303 10301 10300 10300 10302 10303 10305 10305 10306 10306 10305 10304 10303 10301 10298 10294 10291 10287 10284 10279 10274 10269 10265 10262 10259 10258 10257
10309 10308 10313 10305 10301 10307 10307 10302 10306 10303 10301 10302 10302 10300 10299 10299 10298 10296 10296 10297 10298 10300 10302 10303 10304 10304 10303 10301 10300 10297 10294 10289 10285 10280 10274 10268 10261 10255 10250 10246 10243 10240 10238 10237
10294 10296 10298 10288 10292 10294 10296 10291 10291 10291 10292 10294 10294 10295 10295 10295 10294 10295 10295 10296 10298 10299 10301 10302 10301 10300 10298 10296 10294 10290 10285 10279 10273 10267 10260 10253 10246 10239 10233 10229 10225 10222 10219 10218
10281 10285 10283 10273 10283 10283 10286 10281 10284 10285 10282 10287 10287 10289 10290 10291 10292 10293 10295 10296 10297 10299 10299 10299 10297 10294 10291 10288 10285 10281 10276 10269 10261 10254 10247 10240 10234 10227 10221 10215 10210 10205 10202 10200
10270 10274 10270 10270 10272 10271 10276 10274 10276 10277 10277 10280 10283 10285 10288 10290 10291 10292 10293 10294 10295 10296 10295 10294 10291 10287 10284 10280 10275 10270 10265 10259 10251 10244 10237 10230 10222 10216 10210 10204 10198 10193 10188 10185
10260 10263 10260 10262 10264 10265 10266 10267 10271 10272 10275 10278 10281 10284 10286 10288 10289 10290 10290 10291 10291 10290 10289 10287 10284 10280 10276 10270 10266 10260 10254 10248 10242 10235 10228 10220 10213 10206 10199 10193 10188 10183 10179 10173
10251 10252 10251 10255 10256 10257 10260 10262 10265 10268 10272 10276 10279 10282 10284 10285 10286 10286 10287 10286 10285 10285 10283 10281 10277 10273 10268 10262 10257 10250 10245 10238 10232 10225 10218 10209 10203 10196 10190 10183 10178 10172 10168 10165
10242 10243 10245 10248 10249 10250 10254 10257 10262 10265 10270 10273 10276 10279 10281 10281 10282 10282 10282 10280 10279 10278 10276 10273 10269 10264 10260 10254 10248 10242 10235 10228 10221 10214 10207 10199 10193 10186 10179 10174 10168 10163 10157 10152
10232 10232 10238 10240 10245 10246 10249 10252 10257 10262 10267 10269 10273 10275 10275 10277 10278 10278 10277 10275 10273 10271 10268 10265 10261 10256 10252 10246 10239 10232 10224 10217 10210 10202 10196 10188 10181 10176 10168 10162 10156 10150 10146 10142
10226 10229 10233 10235 10238 10240 10244 10248 10253 10258 10262 10265 10267 10270 10271 10273 10272 10272 10270 10269 10266 10264 10261 10257 10253 10248 10243 10237 10230 10223 10215 10206 10199 10190 10182 10177 10169 10161 10156 10150 10144 10138 10132 10126
10219 10224 10228 10231 10234 10237 10240 10245 10249 10253 10257 10261 10262 10264 10265 10267 10265 10264 10263 10262 10259 10257 10252 10249 10245 10239 10234 10228 10220 10212 10203 10196 10187 10178 10171 10162 10155 10149 10143 10137 10131 10125 10118 10111
10216 10220 10221 10225 10229 10232 10235 10241 10245 10249 10252 10255 10257 10258 10259 10259 10258 10256 10255 10253 10251 10247 10243 10240 10235 10229 10224 10216 10208 10200 10191 10183 10175 10166 10158 10151 10145 10135 10126 10120 10114 10108 10102 10096
10211 10214 10217 10220 10224 10227 10231 10236 10240 10244 10247 10249 10251 10251 10251 10251 10250 10249 10247 10245 10241 10238 10235 10230 10225 10219 10213 10205 10196 10188 10180 10171 10159 10151 10144 10135 10128 10122 10115 10107 10100 10093 10084 10077
10205 10209 10213 10216 10219 10222 10227 10231 10234 10238 10241 10242 10243 10244 10243 10243 10242 10241 10239 10235 10232 10229 10224 10220 10215 10208 10201 10192 10183 10173 10165 10158 10147 10136 10128 10120 10113 10105 10097 10090 10084 10077 10070 10062
10203 10206 10210 10213 10215 10219 10223 10227 10230 10233 10234 10235 10235 10235 10235 10234 10233 10232 10229 10226 10223 10219 10214 10208 10202 10195 10187 10179 10169 10158 10149 10141 10132 10121 10112 10104 10097 10089 10081 10074 10066 10058 10050 10041
10200 10204 10206 10209 10213 10216 10219 10222 10225 10226 10227 10227 10227 10227 10227 10226 10223 10222 10219 10216 10212 10207 10202 10195 10189 10181 10173 10165 10155 10142 10132 10123 10115 10107 10097 10088 10079 10071 10063 10055 10046 10038 10030 10021
10198 10201 10203 10206 10209 10212 10215 10217 10218 10218 10218 10218 10219 10219 10218 10216 10213 10211 10208 10205 10201 10195 10189 10182 10175 10167 10158 10149 10140 10132 10118 10106 10095 10087 10080 10072 10063 10055 10045 10035 10026 10017 10009 10001
10195 10197 10200 10203 10205 10207 10209 10209 10210 10211 10210 10210 10210 10210 10208 10206 10203 10200 10197 10193 10188 10182 10175 10168 10160 10152 10143 10133 10123 10113 10104 10094 10082 10071 10061 10052 10044 10035 10025 10015 10006 9997 9988 9981
10190 10193 10195 10197 10199 10200 10201 10202 10203 10203 10203 10202 10201 10199 10197 10195 10193 10189 10185 10180 10173 10167 10161 10153 10144 10135 10126 10116 10105 10094 10084 10074 10065 10055 10045 10036 10026 10017 10007 9997 9988 9978 9970 9963
10184 10186 10188 10189 10191 10192 10193 10193 10194 10194 10194 10193 10191 10189 10187 10184 10181 10176 10172 10166 10159 10153 10146 10137 10128 10119 10109 10099 10088 10077 10066 10055 10045 10036 10026 10016 10007 9997 9988 9979 9971 9961 9952 9944
10178 10180 10181 10182 10184 10185 10185 10185 10185 10185 10184 10183 10181 10179 10176 10172 10167 10162 10157 10151 10144 10138 10131 10121 10111 10101 10090 10080 10069 10059 10048 10038 10027 10018 10007 9997 9988 9978 9969 9960 9952 9943 9935 9927
10171 10173 10174 10175 10175 10176 10176 10175 10175 10174 10174 10172 10170 10166 10163 10157 10153 10149 10143 10136 10129 10121 10112 10103 10094 10084 10072 10061 10051 10041 10030 10019 10008 9998 9988 9978 9969 9960 9951 9942 9934 9926 9917 9909
10164 10165 10166 10167 10167 10167 10166 10165 10165 10164 10162 10159 10156 10152 10149 10144 10141 10135 10126 10119 10112 10104 10094 10085 10074 10064 10053 10042 10031 10022 10012 10001 9990 9980 9970 9961 9951 9943 9933 9924 9916 9908 9900 9891
10156 10157 10157 10158 10158 10157 10156 10155 10153 10151 10149 10147 10143 10139 10135 10130 10124 10119 10111 10102 10094 10085 10075 10065 10054 10043 10032 10022 10012 10002 9992 9982 9973 9963 9953 9944 9934 9925 9916 9907 9898 9890 9882 9874
10146 10147 10147 10147 10146 10146 10144 10142 10141 10138 10135 10132 10128 10124 10119 10114 10107 10099 10092 10083 10073 10064 10054 10044 10033 10023 10012 10002 9993 9983 9973 9964 9955 9946 9936 9928 9918 9909 9900 9891 9882 9874 9865 9856